This is the latest recevied weather packets stored in our database for station/object CQ0XVC-11. If no packets are shown the sender has not sent any weather packets the latest 10 day(s).
| Time | Temp. | Humidity | Pressure | Rain* | Wind** | Luminosity | Snow |
|---|---|---|---|---|---|---|---|
| 1778123739 | 7.78° C | 75% | 997.4 hPa | 0 mm | - | - | - |
| 1778123438 | 7.78° C | 75% | 997.5 hPa | 0 mm | - | - | - |
| 1778123188 | 7.78° C | 74% | 997.4 hPa | 0 mm | - | - | - |
| 1778123135 | 7.78° C | 74% | 997.4 hPa | 0 mm | - | - | - |
| 1778122875 | 7.78° C | 75% | 997.6 hPa | 0 mm | - | - | - |
| 1778122833 | 7.78° C | 75% | 997.6 hPa | 0 mm | - | - | - |
| 1778122531 | 7.78° C | 75% | 997.5 hPa | 0 mm | - | - | - |
| 1778122281 | 7.78° C | 77% | 997.5 hPa | 0 mm | - | - | - |
| 1778122229 | 7.78° C | 77% | 997.5 hPa | 0 mm | - | - | - |
| 1778121926 | 7.78° C | 74% | 997.6 hPa | 0 mm | - | - | - |
| 1778121625 | 7.78° C | 72% | 997.5 hPa | 0 mm | - | - | - |
| 1778121368 | 7.78° C | 73% | 997.5 hPa | 0 mm | - | - | - |
| 1778121322 | 7.78° C | 73% | 997.5 hPa | 0 mm | - | - | - |
| 1778121056 | 7.78° C | 78% | 997.6 hPa | 0 mm | - | - | - |
| 1778121020 | 7.78° C | 78% | 997.6 hPa | 0 mm | - | - | - |
| 1778120784 | 7.78° C | 73% | 997.5 hPa | 0 mm | - | - | - |
| 1778120519 | 7.78° C | 74% | 997.7 hPa | 0 mm | - | - | - |
| 1778120482 | 7.78° C | 74% | 997.7 hPa | 0 mm | - | - | - |
| 1778120179 | 7.78° C | 72% | 997.6 hPa | 0 mm | - | - | - |
| 1778119914 | 7.78° C | 71% | 997.6 hPa | 0 mm | - | - | - |
| 1778119878 | 7.78° C | 71% | 997.6 hPa | 0 mm | - | - | - |
| 1778119575 | 7.78° C | 71% | 997.8 hPa | 0 mm | - | - | - |
| 1778119309 | 7.78° C | 71% | 997.7 hPa | 0 mm | - | - | - |
| 1778119273 | 7.78° C | 71% | 997.7 hPa | 0 mm | - | - | - |
| 1778118669 | 7.78° C | 75% | 997.7 hPa | 0 mm | - | - | - |
* Rain since midnight (hover to see other rain measurements)
** Current wind speed in m/s (hover to see current wind gust speed)